Regional Weather Roundup
Issued by NWS

Home | Current Version | Previous Version | Text Only | Print | Product List | Glossary Off
Versions: 1 2 3 4 5 6 7 8 9 10 11 12 13 14 15 16 17 18 19 20 21 22 23 24 25 26 27 28 29 30 31 32 33 34 35 36 37 38 39 40 41 42 43 44 45 46 47 48 49 50

000
ASUS43 KMKX 271541
RWRWI

WISCONSIN REGIONAL WEATHER ROUNDUP
NATIONAL WEATHER SERVICE MILWAUKEE/SULLIVAN WI
1100 AM CDT WED MAY 27 2015

NOTE: "FAIR" INDICATES FEW OR NO CLOUDS BELOW 12,000 FEET WITH NO
SIGNIFICANT WEATHER AND/OR OBSTRUCTIONS TO VISIBILITY.

WIZ001-002-006>008-014>016-023>028-271700-
NORTHWEST WISCONSIN

CITY           SKY/WX    TMP DP  RH WIND       PRES   REMARKS
SUPERIOR ARPT  MOSUNNY   67  58  70 SW9       29.84S
ASHLAND        PTSUNNY   66  57  72 SW9       29.84R
HAYWARD        PTSUNNY   62  54  74 W8        29.90R
SIREN          MOSUNNY   67  55  66 W10G16    29.90S
CUMBERLAND     MOSUNNY   63  54  72 SW12      29.92S
RICE LAKE      MOSUNNY   65  54  66 SW8       29.93S
CHETEK         MOSUNNY   65  57  75 SW7       29.92S
LADYSMITH      PTSUNNY   62  57  82 W6        29.93S
EAU CLAIRE     SUNNY     65  56  72 W12       29.92S
MENOMONIE      MOSUNNY   66  58  75 SW7       29.93S
NEW RICHMOND   MOSUNNY   66  59  77 SW7       29.93F
OSCEOLA        MOSUNNY   67  58  72 SW8       29.94F
$$

WIZ003>005-009-010-017-018-271700-
NORTH CENTRAL WISCONSIN

CITY           SKY/WX    TMP DP  RH WIND       PRES   REMARKS
MANITOWISH WTR PTSUNNY   60  56  87 W9        29.87S
ARBOR VITAE    FAIR      62  58  88 W9        29.88S
WOODRUFF       FAIR      62  58  88 W9        29.88S
RHINELANDER    LGT RAIN  57  54  89 W8        29.89F
EAGLE RIVER    CLOUDY    59  56  89 W7        29.86S
LAND O LAKES   CLOUDY    62  56  81 W10G16    29.86S
PHILLIPS       PTSUNNY   58  55  88 SW8       29.90R
TOMAHAWK       LGT RAIN  56  55  95 SW3       29.90S
MEDFORD        CLOUDY    58  56  93 W8        29.93S
MERRILL        LGT RAIN  57  57  98 W6        29.92R
$$

WIZ029-030-035-036-043>047-271700-
CENTRAL WISCONSIN

CITY           SKY/WX    TMP DP  RH WIND       PRES   REMARKS
WAUSAU         LGT RAIN  58  56  93 W8        29.90R FOG
MOSINEE        LGT RAIN  57  57 100 W64         N/A
MARSHFIELD     CLOUDY    60  56  86 W9        29.93R
STEVENS POINT  RAIN      57  55  94 NW3       29.93R
WAUPACA        RAIN      62  60  91 W6        29.92R
WAUTOMA        CLOUDY    61  58  90 NW13      29.93R
WISC RAPIDS    LGT RAIN  61  56  83 W7        29.95R
CAMP DOUGLAS   PTSUNNY   64  57  77 VRB6      29.96R
$$

WIZ011>013-019>022-031-037>040-048>050-271700-
NORTHEAST WISCONSIN

CITY           SKY/WX    TMP DP  RH WIND       PRES   REMARKS
ANTIGO         LGT RAIN  56  55  97 W12       29.90R
SHAWANO        CLOUDY    60  57  90 W9        29.89R
OCONTO         CLOUDY    59  59 100 W7        29.84R
STURGEON BAY   CLOUDY    57  54  88 W9        29.88R
GREEN BAY      LGT RAIN  60  57  89 W9        29.88R FOG
MANITOWOC      CLOUDY    62  57  83 W15       29.88R
APPLETON       LGT RAIN  59  57  94 W14       29.89R FOG
CLINTONVILLE   LGT RAIN  59  55  88 W12       29.89R
OSHKOSH        CLOUDY    62  54  74 NW16      29.90R
$$

WIZ032>034-041-042-053>061-271700-
SOUTHWEST WISCONSIN

CITY           SKY/WX    TMP DP  RH WIND       PRES   REMARKS
LA CROSSE      SUNNY     67  57  70 CALM      29.95S
SPARTA         MOSUNNY   65  54  69 CALM      29.95F
VIROQUA        MOSUNNY   63  58  82 NW6       29.96S
BOSCOBEL       PTSUNNY   67  57  70 W7        29.97R
PRAIRIE DU CHI MOSUNNY   66  56  69 W7        29.97R
PLATTEVILLE    PTSUNNY   63  59  87 W10       29.98R
$$

WIZ056-057-062-063-064-067-068-271700-
SOUTH CENTRAL WISCONSIN

CITY           SKY/WX    TMP DP  RH WIND       PRES   REMARKS
REEDSBURG      CLOUDY    63  58  83 NW8G16    29.94R
BARABOO/DELLS  CLOUDY    62  56  81 NW7       29.95R
LONE ROCK      CLOUDY    64  57  78 W9        29.96R
MINERAL POINT  CLOUDY    63  57  82 NW9G16    29.97R
MADISON        CLOUDY    63  57  81 NW9       29.93R
MIDDLETON      CLOUDY    63  58  85 W14G20    29.95R
WATERTOWN      CLOUDY   N/A N/A N/A W7        29.91S
MONROE         CLOUDY    61  59  94 W18G25    29.96R FOG
JANESVILLE     PTSUNNY   66  57  72 W13G18    29.93S
$$

WIZ051-052-058>065-066-070>072-271700-
SOUTHEAST WISCONSIN

CITY           SKY/WX    TMP DP  RH WIND       PRES   REMARKS
MILWAUKEE      PTSUNNY   67  59  75 SW9       29.90F
WAUKESHA       CLOUDY    63  57  82 W12G17    29.93R
MILWAUKEE/TIMM CLOUDY    66  55  68 W12       29.91R
RACINE         LGT RAIN  63  60  90 W9        29.93S
BURLINGTON     CLOUDY    63  59  87 W13G18    29.93S
KENOSHA        HVY RAIN  64  60  87 W14G24    29.93R FOG
FOND DU LAC    CLOUDY    63  55  75 NW14      29.90R
SHEBOYGAN      CLOUDY    65  56  72 W14       29.89R
WEST BEND      RAIN      63  55  77 W10       29.90R
JUNEAU         RAIN      59  58  96 W8        29.93R
$$

LSZ147-162-271700-
LAKE SUPERIOR

STATION/POSITION TIME  TEMP    WIND        PRES    WAVE
                       AIR SEA DIR/SP/G            HT/PER
                 (UTC) (F)     (DEG/KT/KT) (MB)    (FT/S)
W MID LAKE BUOY  1450   41 37  230/ 12/ 12 1090.0R   1/ 3
DEVILS ISLAND    1500   56     230/ 14/ 16   N/A
PORT WING        1400   63     190/  6/  9   N/A
$$

LMZ867-665-643>646-271700-
LAKE MICHIGAN

STATION/POSITION TIME  TEMP    WIND        PRES    WAVE
                       AIR SEA DIR/SP/G            HT/PER
                 (UTC) (F)     (DEG/KT/KT) (MB)    (FT/S)
CHAMBERS ISLAND  1400   56     300/  5/ 10   N/A
N MID LAKE BUOY  1450   41 37  210/  8/  8   N/A     4/ 6
NORTHPORT PIER   1400   56     280/  4/  9 1088.0R
SISTER BAY       1418   54     330/ 11/ 13   N/A
ALGOMA LAKESHORE 1408          260/  7/ 12   N/A
KEWAUNEE LAKESHO 1500   60     290/  9/ 14   N/A
SHEBOYGAN LAKESH 1500   65     290/ 13/ 16   N/A
PORT WASHINGTON  1400   67     260/  9/ 14   N/A
ATWATER BUOY     1500   62 46  250/ 10/ 14   N/A
MILWAUKEE LAKESH 1500   66     270/  9/ 12   N/A
S MID LAKE BUOY  1450   45 38  200/ 10/ 10   N/A     2/ 3
KENOSHA   LAKESH 1500   68     230/ 13/ 19   N/A
$$

TC  - TEMPERATURE IN CELSIUS
VSB - VISIBILITY IN STATUTE MILES
WCI - WIND CHILL INDEX
HX  - HEAT INDEX




USA.gov is the U.S. government's official web portal to all federal, state and local government web resources and services.